GEFSGL_500_meanwind_180.txt.gz
Wind_Speed
17 17 16 16 16 16 15 15 14 14 14 14 15 14 14 13 13 12 12 12 12 12 11 11 12 12 12 12 12 11 11 11 11 11 12 12 12 12 12 13 13 13 14
17 17 17 17 16 16 16 16 15 15 15 15 15 14 14 14 14 14 13 13 12 13 13 13 13 13 13 13 13 13 12 12 12 13 13 13 13 14 14 14 15 15 16
16 17 18 17 16 15 15 15 15 15 15 15 15 15 15 15 14 14 14 13 13 13 14 14 14 14 14 14 14 13 13 13 14 14 15 15 15 15 15 16 16 17 18
17 17 17 17 17 16 16 16 16 15 15 15 16 16 16 16 16 15 15 15 15 15 15 15 15 15 15 15 14 14 15 15 16 16 17 17 18 18 18 18 18 19 20
17 17 18 18 18 17 17 17 17 16 16 16 16 16 16 16 16 16 16 16 16 15 16 16 16 16 15 15 15 15 16 17 17 18 19 19 20 20 20 20 21 21 22
17 18 18 18 18 18 18 17 17 17 17 16 17 16 16 16 16 16 16 16 16 16 16 16 16 16 16 17 17 17 18 18 19 20 21 21 22 22 22 22 23 24 25
18 18 18 18 18 18 18 17 17 18 17 17 17 17 16 16 16 16 17 17 17 17 18 18 18 18 18 18 19 19 19 20 21 22 23 23 23 24 24 25 26 27 27
18 18 18 18 18 18 18 18 18 18 18 18 17 16 16 16 16 17 18 19 19 19 19 19 19 20 20 20 20 21 21 22 23 24 24 24 24 25 26 27 28 29 30
17 18 18 19 18 18 18 18 17 17 17 17 17 17 17 18 18 19 19 19 19 20 20 20 20 21 21 21 22 22 23 24 25 25 26 27 28 29 29 30 31 31 32
18 18 18 18 18 19 19 18 18 18 18 18 18 18 19 19 19 20 20 20 21 21 22 22 22 23 23 23 24 25 25 26 27 27 28 29 30 31 32 33 34 34 35
19 19 19 19 18 19 19 19 19 19 19 20 20 20 20 20 21 21 21 22 22 23 24 24 24 24 25 26 26 27 27 28 28 29 30 31 32 33 34 35 35 36 37
19 20 19 20 19 19 20 20 21 21 21 21 21 21 21 22 22 21 22 22 23 23 24 24 24 25 26 27 28 29 29 29 30 31 32 33 34 36 36 37 38 39 40
20 20 20 20 21 21 21 21 20 21 21 22 22 22 22 23 23 23 23 24 24 25 25 26 26 27 28 29 30 31 31 31 32 33 34 35 36 37 38 39 40 42 43
21 21 21 20 21 21 21 22 22 23 23 24 24 24 24 25 25 26 27 27 27 27 28 29 29 29 30 31 32 33 32 33 34 35 37 38 39 40 41 42 43 44 44
21 21 22 22 22 22 23 23 24 25 25 25 25 26 26 27 28 28 29 30 30 30 31 31 31 32 33 34 34 34 35 36 36 38 39 40 41 42 43 44 44 45 45
21 21 22 22 23 24 25 25 26 27 28 28 28 29 29 30 30 30 31 32 32 31 32 32 33 34 35 36 37 37 38 38 39 40 41 42 43 44 44 45 46 46 47
22 22 22 23 24 25 26 27 27 28 29 30 30 31 32 32 33 33 34 35 35 35 35 36 36 36 37 38 39 40 41 42 42 43 44 45 46 46 47 47 47 48 48
24 24 24 24 25 26 27 27 29 30 30 31 32 33 34 34 35 35 35 36 37 37 37 37 38 38 39 41 42 44 45 45 46 47 47 48 48 49 48 48 49 50 51
25 24 24 25 25 26 27 27 28 30 31 32 34 35 35 35 36 36 37 37 37 38 38 38 40 41 42 44 45 46 47 48 48 48 49 49 49 50 50 50 50 51 51
24 24 24 24 25 26 27 28 28 28 29 30 31 33 34 35 36 37 38 38 39 40 40 41 42 44 45 46 46 47 48 48 49 49 49 50 50 50 50 50 51 50 50
23 23 24 25 25 26 27 28 29 29 29 29 30 30 32 34 36 37 38 39 40 40 41 42 43 44 45 46 47 47 48 48 48 48 49 49 50 50 50 50 50 50 50
22 23 23 24 25 26 27 28 29 30 30 31 33 33 33 33 35 37 39 40 41 42 42 44 44 44 45 46 47 48 48 49 49 49 49 50 50 50 51 51 51 51 50
23 23 24 25 26 27 28 28 29 30 31 32 33 34 35 36 38 39 40 41 42 43 44 45 45 45 46 47 48 48 48 48 49 50 50 50 50 51 51 50 50 49 48
24 25 25 26 26 27 28 30 31 32 32 33 34 36 37 39 40 40 41 42 43 43 44 44 45 45 46 47 48 48 49 50 50 51 50 50 50 51 50 48 47 47 46
24 25 25 26 27 28 29 30 31 32 33 34 35 37 38 39 39 40 41 42 43 43 43 44 45 46 47 48 48 49 50 50 51 51 50 49 49 49 48 46 46 45 44
24 25 26 27 28 29 30 32 34 34 35 36 37 38 38 39 39 40 41 42 43 44 44 45 45 46 47 47 48 48 49 49 48 48 47 47 47 47 46 46 44 44 43

GEFSGL_500_meanwind_186.txt.gz
Wind_Speed
15 16 16 17 16 16 15 15 16 16 16 16 16 15 14 14 14 14 13 13 13 13 13 12 12 12 12 12 12 12 12 12 13 13 13 13 13 12 13 13 13 13 13
14 15 16 16 16 15 16 16 16 16 16 16 16 15 15 15 15 15 14 14 14 14 14 14 13 13 13 13 13 13 13 13 14 14 14 14 14 14 14 15 15 15 15
16 16 16 16 16 15 15 16 16 15 15 16 15 15 15 15 15 15 15 15 15 15 15 15 15 14 14 14 14 15 15 15 15 15 15 15 15 15 16 16 16 17 18
16 17 17 16 16 15 16 16 16 15 15 15 15 16 16 16 15 15 16 16 16 16 16 15 16 15 15 15 15 16 16 16 16 16 16 16 17 17 18 18 19 19 20
17 17 18 17 17 17 17 17 17 15 15 16 16 17 17 17 16 16 17 16 16 16 16 16 16 17 16 16 16 16 17 17 17 17 17 18 18 19 19 20 21 21 22
18 18 18 18 19 18 18 18 18 17 16 16 16 16 17 17 17 17 16 16 16 16 17 17 16 17 17 18 18 18 18 19 19 19 19 20 20 21 22 22 23 23 24
19 18 18 19 19 19 20 20 19 18 18 17 17 17 17 17 17 17 16 16 16 16 16 17 17 17 17 18 19 19 20 20 21 21 22 22 23 23 23 24 25 26 26
18 18 18 20 20 21 21 21 20 20 19 18 18 18 18 18 17 16 17 17 17 17 17 18 18 19 19 19 20 22 22 22 23 23 23 24 24 25 26 26 27 28 29
19 18 19 19 20 21 21 21 21 20 20 20 19 19 19 18 17 18 18 18 19 18 18 19 20 20 21 21 21 22 23 24 23 24 25 25 25 26 28 29 30 30 31
19 20 20 20 20 20 20 20 20 20 21 21 21 21 19 18 19 19 19 20 20 20 20 20 21 22 23 23 24 25 25 25 26 26 27 28 28 29 30 31 32 33 33
18 18 19 19 20 20 20 20 20 20 20 20 20 20 20 20 20 20 20 21 21 22 23 24 24 25 26 26 26 26 27 27 28 30 30 31 31 31 31 33 34 34 35
17 17 18 18 19 19 19 20 20 19 19 19 20 21 21 21 21 21 22 22 23 24 25 25 26 26 26 27 27 28 29 30 30 31 32 32 33 33 34 34 35 37 38
17 17 17 17 19 19 20 20 20 20 21 22 22 22 22 23 23 23 24 25 25 25 26 27 27 27 28 28 28 30 30 32 33 34 34 35 36 36 36 37 38 39 40
18 18 18 18 19 19 20 21 21 22 23 24 24 24 24 24 25 25 26 26 27 27 28 28 28 29 30 30 31 33 34 34 35 36 36 37 38 38 39 40 41 42 42
19 18 19 19 20 20 21 22 22 23 23 24 25 25 25 25 26 27 28 29 29 29 30 31 32 32 33 34 35 35 36 36 36 37 38 40 40 41 42 42 43 44 44
19 19 19 20 20 21 21 22 23 23 24 24 26 26 27 28 28 29 29 30 32 33 34 34 35 35 35 36 36 37 37 38 39 40 41 42 43 43 44 44 45 45 45
21 20 20 20 21 21 22 23 23 24 25 25 26 27 28 29 30 31 32 33 34 35 36 37 38 38 38 38 39 39 40 40 41 42 42 43 43 44 45 46 46 46 47
21 21 21 22 22 22 23 24 25 25 26 26 27 29 30 31 32 33 34 35 36 38 39 40 40 40 40 40 41 41 41 42 42 43 43 44 45 46 46 47 47 47 48
21 22 22 22 23 24 25 25 26 26 27 28 29 30 31 31 33 34 35 36 37 38 39 40 40 40 40 41 41 42 42 43 44 44 44 45 46 46 47 47 47 48 47
22 22 23 24 24 25 25 26 27 28 28 29 30 31 32 33 35 35 37 38 38 38 38 38 39 39 40 40 41 41 42 43 45 45 46 46 47 47 47 47 47 47 47
23 23 23 24 25 25 26 27 28 29 30 32 32 33 34 36 37 37 37 38 38 38 38 39 39 40 40 41 42 43 44 44 45 46 46 47 47 47 47 47 47 47 48
24 24 24 25 26 26 27 28 29 30 31 32 33 34 35 36 37 37 37 38 39 40 40 41 41 42 42 43 44 45 45 45 45 46 47 48 48 48 48 48 49 49 49
25 25 25 26 26 27 28 29 30 31 32 33 34 35 35 35 36 37 38 39 39 40 41 41 42 42 42 43 43 44 44 45 46 47 48 48 48 48 48 49 49 49 49
24 25 25 26 26 27 28 29 30 31 32 33 33 33 34 35 37 38 39 40 40 41 41 42 42 42 43 43 44 45 45 46 47 48 48 48 48 48 48 48 48 48 48
24 25 25 26 27 27 28 29 30 31 32 32 33 34 35 36 37 38 39 39 40 41 42 43 43 44 44 45 45 46 47 48 48 48 48 48 47 47 47 47 46 46 46
23 25 26 27 27 28 28 29 30 31 31 32 33 34 35 36 37 38 38 39 40 42 43 43 44 45 46 47 47 48 48 48 48 47 47 46 45 45 45 44 44 43 43

GEFSGL_500_meanwind_192.txt.gz
Wind_Speed
14 14 14 13 14 14 13 13 14 13 12 12 12 12 12 13 13 12 12 12 12 11 11 12 12 12 12 13 12 12 12 13 13 12 13 13 12 12 12 12 12 12 12
14 14 14 13 13 13 13 14 14 13 12 12 12 13 13 14 14 14 13 14 13 13 12 13 13 13 13 13 14 14 13 13 14 14 14 14 13 13 13 13 13 13 13
14 14 14 14 13 13 14 14 14 13 13 13 14 14 14 14 14 14 14 14 14 14 13 13 14 14 14 14 15 15 15 15 15 15 15 15 15 15 15 14 14 15 15
14 14 14 14 14 14 15 15 14 13 13 14 15 14 15 15 15 14 15 14 14 14 14 14 15 15 15 15 16 17 16 17 17 16 16 16 17 17 17 17 16 17 17
15 15 15 15 15 15 15 15 15 14 14 14 14 14 14 15 15 15 15 15 15 16 15 15 16 16 17 16 17 17 17 18 18 18 18 18 18 19 19 19 19 19 20
16 16 16 16 16 15 16 16 15 15 15 15 15 15 15 15 15 16 16 16 16 16 16 16 17 17 18 18 18 18 18 19 19 19 20 20 20 20 21 21 21 22 23
16 16 16 16 16 15 16 16 16 16 15 16 15 15 16 15 15 16 16 17 17 17 17 17 17 18 19 19 19 19 19 20 20 21 21 21 22 22 22 23 24 25 25
17 18 17 17 17 17 18 18 18 17 16 16 16 17 17 16 17 18 18 18 18 19 19 19 19 19 19 20 20 20 21 21 21 22 23 24 24 24 25 26 26 27 28
17 17 17 17 18 18 19 19 19 18 18 18 18 19 19 19 19 19 20 20 20 20 19 19 19 20 20 21 21 21 22 23 23 24 25 25 26 27 27 28 29 29 29
17 17 17 17 18 18 19 19 18 18 18 19 20 21 21 20 21 21 21 21 21 20 21 21 21 21 22 22 22 22 23 24 25 26 27 28 28 29 29 30 31 32 32
17 18 18 18 17 17 17 18 18 19 19 19 20 21 21 22 21 21 21 21 21 21 21 21 22 23 24 25 25 25 26 27 28 28 29 30 30 31 32 33 34 34 35
18 18 18 18 19 18 18 19 19 21 21 22 22 21 22 22 22 22 22 21 21 22 22 23 23 24 25 26 27 28 29 30 30 30 31 31 32 33 34 35 35 36 37
17 17 18 18 18 19 19 19 20 20 20 21 21 21 21 21 22 22 22 22 23 24 25 25 26 27 28 28 29 30 31 32 32 33 33 34 35 36 37 37 37 38 39
18 18 18 18 18 18 19 19 19 20 20 21 22 21 21 21 22 22 22 23 24 25 26 27 28 29 30 31 31 32 33 34 35 36 36 37 38 38 39 39 40 40 41
20 20 20 20 20 20 20 20 21 21 21 21 21 22 22 23 23 23 23 24 25 27 28 29 30 31 32 33 34 35 36 38 38 38 38 39 40 40 41 41 42 42 42
19 20 20 21 21 22 22 21 21 21 21 21 22 22 23 24 24 24 25 26 27 28 30 31 32 33 34 36 37 38 40 40 40 40 40 41 42 43 43 43 43 43 43
20 20 21 22 22 22 22 22 21 20 21 21 22 23 24 24 25 26 27 29 30 31 32 33 34 35 36 37 38 39 41 41 41 42 42 43 44 44 44 44 44 44 45
20 20 20 21 22 22 21 21 21 22 22 22 23 24 25 26 27 29 30 31 32 33 35 36 37 37 38 39 40 41 41 42 42 43 43 43 43 43 44 45 45 45 46
20 20 20 20 21 21 21 22 22 23 24 25 25 26 27 28 29 30 31 33 34 35 36 37 38 39 39 40 41 42 43 43 44 44 44 44 44 44 45 45 46 47 47
20 20 20 20 21 22 23 23 23 24 25 26 27 27 28 28 30 31 32 34 35 36 37 38 39 40 40 41 42 43 43 44 45 45 46 46 46 47 48 48 48 48 48
21 21 21 22 23 23 24 25 26 26 25 26 27 28 29 30 31 32 34 36 37 38 38 39 40 41 41 42 43 44 45 46 46 46 46 47 48 49 49 49 49 49 49
22 22 22 23 24 25 26 26 27 26 27 28 29 30 31 32 33 34 35 36 37 38 39 41 41 42 43 44 46 46 46 47 47 48 48 48 49 50 51 51 50 50 50
21 22 22 23 24 25 26 26 26 27 28 29 30 31 32 33 34 35 36 37 38 39 40 41 42 43 44 45 46 46 46 47 47 48 48 48 49 49 50 50 49 49 48
22 22 23 24 25 25 26 27 27 28 29 30 31 32 33 34 34 35 36 38 39 40 40 42 42 43 43 43 44 44 45 46 46 46 46 47 47 48 48 48 48 47 45
23 24 24 25 25 26 27 28 28 29 30 31 32 32 33 34 35 36 37 38 38 39 40 41 42 43 43 43 43 43 44 44 44 44 44 45 45 46 46 46 46 45 44
22 24 24 25 26 26 28 29 29 30 31 32 33 33 33 34 35 36 37 37 38 39 40 41 42 42 43 42 42 43 43 43 44 44 44 45 45 45 45 45 44 43 42

GEFSGL_500_meanwind_198.txt.gz
Wind_Speed
12 11 11 11 11 11 11 11 11 12 12 12 12 12 12 12 12 11 12 12 11 12 12 12 12 12 12 12 12 12 13 13 13 12 12 12 12 12 12 12 13 13 13
12 11 10 10 11 10 10 11 12 12 12 12 13 13 13 13 13 12 13 13 13 13 13 13 12 12 12 12 12 13 13 14 14 14 14 14 14 14 14 14 14 15 15
11 11 11 10 11 12 11 12 12 12 12 13 13 14 14 15 14 14 14 14 15 15 14 13 13 13 13 13 14 14 15 15 15 16 16 16 16 16 16 16 16 16 17
12 12 12 12 12 12 13 13 14 14 13 14 14 14 15 15 15 15 15 15 15 15 15 15 14 14 14 15 16 16 17 17 17 17 18 17 17 17 17 17 18 18 18
12 13 12 13 13 14 14 14 15 15 15 15 16 15 15 15 15 16 16 16 16 16 16 16 15 15 16 16 16 17 17 17 18 18 19 19 19 19 20 20 19 20 20
14 13 13 13 14 14 14 14 15 15 15 16 16 17 17 17 17 16 16 15 16 16 16 17 17 17 17 17 17 18 18 18 19 20 20 21 21 21 21 21 22 22 23
13 14 14 14 14 13 14 14 14 15 15 15 16 17 17 17 16 16 16 16 17 17 18 18 18 18 18 18 19 19 19 20 21 21 22 22 22 22 22 23 23 24 25
15 15 15 15 15 15 15 15 15 14 15 16 17 17 16 17 17 18 19 18 18 18 18 19 19 19 19 20 20 20 20 21 22 23 23 22 23 24 25 25 26 26 27
15 15 15 15 15 14 15 16 16 16 16 16 17 17 17 18 18 19 20 20 20 20 20 20 21 21 21 22 22 22 23 23 23 23 23 23 25 26 27 28 28 29 29
14 14 14 14 14 15 15 16 16 16 17 17 17 17 18 18 19 20 20 21 21 21 22 22 22 22 23 23 23 23 24 23 24 24 25 26 27 28 29 31 32 32 32
14 14 15 15 15 15 15 16 17 17 17 17 17 18 18 19 20 20 21 21 22 22 23 23 23 23 23 24 24 24 24 25 26 26 27 29 30 31 33 33 34 34 35
15 15 14 14 14 15 16 17 18 17 17 17 18 18 19 20 21 22 23 23 23 23 23 23 23 24 24 24 25 25 26 27 29 30 31 32 33 34 35 37 37 37 38
15 15 15 15 15 16 17 17 18 18 18 18 18 18 19 19 20 21 22 23 24 24 25 24 24 24 25 25 26 28 29 31 31 33 34 35 36 37 37 38 39 39 40
17 17 17 17 18 18 18 18 19 19 19 20 20 20 21 21 21 21 22 24 24 25 25 26 27 27 27 28 29 30 32 33 34 35 36 36 37 38 40 40 40 42 43
18 18 18 19 19 19 19 19 19 20 20 21 21 21 22 22 22 23 24 25 25 26 26 27 27 28 29 31 32 33 34 35 36 37 37 38 39 40 42 42 43 44 45
19 19 19 19 19 19 20 20 20 21 22 22 23 24 25 25 26 26 26 26 26 27 27 28 29 30 32 33 34 35 36 37 38 39 40 41 42 43 44 45 46 47 47
19 19 19 19 19 20 20 20 21 21 22 22 23 24 25 26 25 26 26 26 26 27 29 30 31 32 33 34 36 37 38 39 40 40 41 42 43 44 46 47 47 47 48
18 19 20 20 20 20 20 20 21 21 22 22 22 23 23 23 24 25 26 27 28 29 30 30 32 33 34 36 37 38 39 40 40 41 42 43 44 45 46 47 48 48 48
19 20 21 21 20 20 20 21 21 21 22 22 23 23 24 24 25 25 26 27 28 30 31 32 33 34 36 37 38 39 40 40 41 42 43 44 45 46 47 48 48 49 49
19 20 20 21 22 22 21 22 22 22 23 23 23 24 25 26 27 27 27 28 29 30 31 32 33 35 36 37 38 39 40 41 42 43 44 45 45 46 47 47 48 48 49
19 19 19 21 22 22 22 22 23 24 24 24 25 26 27 28 28 28 28 29 30 31 32 34 35 36 37 38 39 40 42 43 43 44 45 45 45 46 46 46 47 47 48
19 19 19 20 20 21 22 22 23 24 24 25 26 28 28 29 29 28 29 30 31 33 34 35 36 37 38 39 40 42 43 43 43 44 44 45 45 46 46 46 46 47 48
19 20 20 20 20 20 20 21 22 23 24 25 26 27 28 29 29 29 30 31 32 34 34 35 37 38 39 40 41 42 42 42 43 44 45 45 46 46 47 47 47 47 47
18 19 19 19 20 20 21 22 23 23 24 25 26 27 27 28 29 30 31 32 33 34 35 35 37 38 39 40 41 41 42 43 43 44 44 44 45 45 45 45 45 46 46
19 19 19 20 21 22 22 22 23 24 25 26 26 27 27 28 29 30 31 32 32 34 35 36 38 38 39 40 40 41 42 42 42 43 43 44 44 44 44 43 43 44 44
19 20 21 21 22 22 23 23 24 25 26 26 27 27 28 28 29 30 31 32 33 34 36 37 38 39 40 41 41 42 42 42 42 42 43 43 43 43 43 42 42 42 42